TimeEDT,TemperatureF,Dew PointF,Humidity,Sea Level PressureIn,VisibilityMPH,Wind Direction,Wind SpeedMPH,Gust SpeedMPH,PrecipitationIn,Events,Conditions,WindDirDegrees,DateUTC
12:53 AM,52.0,50.0,93,30.17,10.0,Calm,Calm,-,N/A,,Clear,0,2013-08-07 04:53:00
1:53 AM,51.1,48.9,92,30.18,10.0,Calm,Calm,-,N/A,,Clear,0,2013-08-07 05:53:00
2:53 AM,50.0,48.0,93,30.19,10.0,Calm,Calm,-,N/A,,Clear,0,2013-08-07 06:53:00
3:53 AM,48.9,46.9,93,30.19,10.0,Calm,Calm,-,N/A,,Clear,0,2013-08-07 07:53:00
4:53 AM,48.0,46.0,93,30.20,10.0,Calm,Calm,-,N/A,,Clear,0,2013-08-07 08:53:00
5:53 AM,48.0,46.0,93,30.21,10.0,Calm,Calm,-,N/A,,Clear,0,2013-08-07 09:53:00
6:53 AM,53.1,51.1,93,30.21,10.0,Calm,Calm,-,N/A,,Clear,0,2013-08-07 10:53:00
7:53 AM,61.0,55.9,83,30.21,10.0,Calm,Calm,-,N/A,,Clear,0,2013-08-07 11:53:00
8:53 AM,68.0,60.1,76,30.21,10.0,South,4.6,-,N/A,,Clear,190,2013-08-07 12:53:00
9:53 AM,70.0,60.1,71,30.21,10.0,SSW,5.8,-,N/A,,Clear,200,2013-08-07 13:53:00
10:53 AM,72.0,61.0,68,30.20,10.0,South,5.8,-,N/A,,Clear,190,2013-08-07 14:53:00
11:53 AM,73.0,57.9,59,30.20,10.0,SSE,5.8,-,N/A,,Clear,150,2013-08-07 15:53:00
12:53 PM,73.9,55.0,52,30.20,10.0,South,6.9,-,N/A,,Clear,170,2013-08-07 16:53:00
1:53 PM,73.0,54.0,51,30.20,10.0,South,6.9,-,N/A,,Clear,180,2013-08-07 17:53:00
2:53 PM,73.0,57.9,59,30.20,10.0,Variable,6.9,-,N/A,,Clear,0,2013-08-07 18:53:00
3:53 PM,72.0,61.0,68,30.19,10.0,Variable,4.6,-,N/A,,Clear,0,2013-08-07 19:53:00
4:53 PM,71.1,62.1,73,30.17,10.0,South,6.9,-,N/A,,Clear,190,2013-08-07 20:53:00
5:53 PM,69.1,62.1,78,30.16,10.0,SSE,6.9,-,N/A,,Clear,160,2013-08-07 21:53:00
6:53 PM,68.0,62.1,81,30.17,10.0,South,5.8,-,N/A,,Mostly Cloudy,180,2013-08-07 22:53:00
7:42 PM,66.2,62.6,88,30.16,10.0,Calm,Calm,-,N/A,,Partly Cloudy,0,2013-08-07 23:42:00
7:53 PM,66.0,62.1,87,30.16,10.0,Calm,Calm,-,N/A,,Mostly Cloudy,0,2013-08-07 23:53:00
8:53 PM,64.9,62.1,90,30.16,10.0,Calm,Calm,-,N/A,,Mostly Cloudy,0,2013-08-08 00:53:00
9:25 PM,64.4,62.6,94,30.16,10.0,Calm,Calm,-,N/A,,Scattered Clouds,0,2013-08-08 01:25:00
9:53 PM,64.0,62.1,93,30.16,10.0,Calm,Calm,-,N/A,,Clear,0,2013-08-08 01:53:00
10:53 PM,63.0,61.0,93,30.16,10.0,Calm,Calm,-,N/A,,Clear,0,2013-08-08 02:53:00
11:53 PM,63.0,60.1,90,30.15,10.0,Calm,Calm,-,N/A,,Clear,0,2013-08-08 03:53:00